GW3294 Weather Reports


Display with metric or nautical units.
time (UTC)temp
F
wind
direction
speed
MPH
gust
MPH
rain 1hr
in
rain 24hr
in
rain mn
in
humidity
%
barometer
mb
20260509164248 73 243 2.0 6.0 0.00 0.00 0.00 60 1012.3
20260509163745 74 126 4.0 7.0 0.00 0.00 0.00 59 1012.4
20260509163241 74 292 0.0 10.0 0.00 0.00 0.00 61 1012.4
20260509162739 73 256 2.0 8.0 0.00 0.00 0.00 66 1012.5
20260509162234 71 322 0.0 4.0 0.00 0.00 0.00 66 1012.3
20260509161730 73 273 3.0 7.0 0.00 0.00 0.00 70 1012.6
20260509161226 71 113 2.0 5.0 0.00 0.00 0.00 72 1012.4
20260509160721 70 92 0.0 3.0 0.00 0.00 0.00 73 1012.5
20260509160218 70 323 2.0 4.0 0.00 0.00 0.00 70 1012.3
20260509155713 70 127 3.0 9.0 0.00 0.00 0.00 70 1012.3
20260509155210 70 140 0.0 5.0 0.00 0.00 0.00 69 1012.3
20260509154706 68 292 6.0 9.0 0.00 0.00 0.00 72 1012.3
20260509154203 68 311 2.0 4.0 0.00 0.00 0.00 78 1012.5
20260509153700 70 188 1.0 3.0 0.00 0.00 0.00 73 1012.3
20260509153156 70 205 2.0 3.0 0.00 0.00 0.00 72 1012.1
20260509152652 69 227 0.0 4.0 0.00 0.00 0.00 77 1012.3
20260509152149 67 172 2.0 10.0 0.00 0.00 0.00 77 1012.2
20260509151646 66 237 1.0 3.0 0.00 0.00 0.00 81 1012.3
20260509151143 65 203 1.0 5.0 0.00 0.00 0.00 80 1012.4
20260509150641 65 235 2.0 5.0 0.00 0.00 0.00 81 1012.0
20260509150139 65 192 2.0 5.0 0.00 0.00 0.00 82 1012.1
20260509145635 64 155 5.0 8.0 0.00 0.00 0.00 84 1012.1
20260509145130 62 198 0.0 5.0 0.00 0.00 0.00 86 1012.3
20260509144627 62 279 1.0 5.0 0.00 0.00 0.00 87 1012.1
20260509144124 62 249 3.0 7.0 0.00 0.00 0.00 87 1012.1
20260509143621 61 221 4.0 6.0 0.00 0.00 0.00 88 1011.9
20260509143119 61 219 2.0 6.0 0.00 0.00 0.00 89 1012.3
20260509142614 61 144 1.0 6.0 0.00 0.00 0.00 89 1012.1
20260509142110 60 141 1.0 5.0 0.00 0.00 0.00 90 1012.1
20260509141606 60 238 2.0 4.0 0.00 0.00 0.00 91 1012.3
20260509141103 60 176 0.0 5.0 0.00 0.00 0.00 93 1012.2
20260509140600 59 112 0.0 4.0 0.00 0.00 0.00 93 1012.2
20260509140058 60 150 0.0 4.0 0.00 0.00 0.00 94 1011.9
20260509135555 59 179 2.0 5.0 0.00 0.00 0.00 95 1012.0
20260509135053 59 196 3.0 3.0 0.00 0.00 0.00 96 1011.7
20260509134549 58 218 0.0 4.0 0.00 0.00 0.00 96 1011.8
20260509134047 58 281 2.0 3.0 0.00 0.00 0.00 96 1012.0
20260509133544 58 256 0.0 2.0 0.00 0.00 0.00 97 1011.9
20260509133041 58 110 1.0 3.0 0.00 0.00 0.00 97 1011.9
20260509132534 57 57 0.0 2.0 0.00 0.00 0.00 97 1011.6
20260509132032 57 23 0.0 3.0 0.00 0.00 0.00 97 1011.8
20260509131528 57 0 1.0 2.0 0.00 0.00 0.00 98 1012.0
20260509131025 57 229 0.0 2.0 0.00 0.00 0.00 98 1011.7
20260509130520 57 144 1.0 3.0 0.00 0.00 0.00 99 1011.8
20260509130017 57 140 1.0 4.0 0.00 0.00 0.00 99 1011.9
20260509125514 57 99 2.0 4.0 0.00 0.00 0.00 99 1011.9
20260509125010 57 212 0.0 1.0 0.00 0.00 0.00 99 1011.9
20260509124507 57 177 1.0 3.0 0.00 0.00 0.00 99 1011.9
20260509124004 56 219 2.0 3.0 0.00 0.00 0.00 99 1011.8
20260509123502 56 248 0.0 5.0 0.00 0.00 0.00 99 1011.9
20260509122957 56 279 2.0 3.0 0.00 0.00 0.00 99 1012.1
20260509122454 56 141 1.0 2.0 0.00 0.00 0.00 99 1011.9
20260509121951 56 176 2.0 3.0 0.00 0.00 0.00 99 1012.1
20260509121448 56 209 0.0 6.0 0.00 0.00 0.00 99 1011.9
20260509120946 56 182 0.0 2.0 0.00 0.00 0.00 99 1011.7
20260509120444 56 192 0.0 2.0 0.00 0.00 0.00 99 1011.8
20260509115942 57 269 0.0 3.0 0.00 0.00 0.00 99 1011.7
20260509115438 56 190 0.0 8.0 0.00 0.00 0.00 99 1011.7
20260509114936 56 326 0.0 2.0 0.00 0.00 0.00 99 1011.7
20260509114434 56 199 0.0 2.0 0.00 0.00 0.00 99 1011.4
20260509113933 56 160 0.0 5.0 0.00 0.00 0.00 99 1011.5
20260509113430 56 282 0.0 1.0 0.00 0.00 0.00 99 1011.4
20260509112927 56 228 0.0 2.0 0.00 0.00 0.00 99 1011.3
20260509112425 56 224 0.0 1.0 0.00 0.00 0.00 99 1011.3
20260509111921 56 116 0.0 2.0 0.00 0.00 0.00 99 1011.4
20260509111418 56 147 0.0 2.0 0.00 0.00 0.00 99 1011.3
20260509110916 56 283 0.0 2.0 0.00 0.00 0.00 99 1011.7
20260509110412 56 129 0.0 1.0 0.00 0.00 0.00 99 1011.6
20260509105910 56 151 1.0 2.0 0.00 0.00 0.00 99 1011.4
20260509105408 56 163 0.0 3.0 0.00 0.00 0.00 99 1011.4
20260509104905 56 144 4.0 5.0 0.00 0.00 0.00 99 1011.6
20260509104402 56 132 2.0 3.0 0.00 0.00 0.00 99 1011.4
20260509103859 56 56 2.0 4.0 0.00 0.00 0.00 99 1011.6
20260509103356 56 5 0.0 4.0 0.00 0.00 0.00 99 1011.4
20260509102855 56 273 1.0 3.0 0.00 0.00 0.00 99 1011.5
20260509102352 56 233 2.0 5.0 0.00 0.00 0.00 99 1011.1
20260509101847 56 198 0.0 4.0 0.00 0.00 0.00 99 1011.2
20260509101343 56 143 0.0 3.0 0.00 0.00 0.00 99 1011.4
20260509100842 56 129 0.0 3.0 0.00 0.00 0.00 99 1011.0
20260509100338 56 314 2.0 5.0 0.00 0.00 0.00 99 1011.1
20260509095835 56 145 2.0 4.0 0.00 0.00 0.00 99 1011.1
20260509095333 56 243 0.0 2.0 0.00 0.00 0.00 99 1010.8
20260509094830 56 130 0.0 3.0 0.00 0.00 0.00 99 1011.2
20260509094326 56 133 0.0 2.0 0.00 0.00 0.00 99 1011.1
20260509093824 56 168 0.0 4.0 0.00 0.00 0.00 99 1011.0
20260509093321 56 187 0.0 3.0 0.00 0.00 0.00 99 1011.1
20260509092820 56 37 0.0 2.0 0.00 0.00 0.00 99 1011.0
20260509092317 56 298 1.0 2.0 0.00 0.00 0.00 99 1011.0
20260509091815 56 239 1.0 2.0 0.00 0.00 0.00 99 1010.8
20260509091311 56 101 0.0 2.0 0.00 0.00 0.00 99 1010.8
20260509090809 56 124 0.0 0.0 0.00 0.00 0.00 99 1010.8
20260509090306 56 64 2.0 2.0 0.00 0.00 0.00 99 1010.8
20260509085803 56 315 0.0 3.0 0.00 0.00 0.00 99 1010.8
20260509085301 56 166 0.0 2.0 0.00 0.00 0.00 99 1010.7
20260509084757 56 288 0.0 2.0 0.00 0.00 0.00 99 1010.6
20260509084254 56 44 0.0 2.0 0.00 0.00 0.00 99 1010.7
20260509083752 56 315 1.0 4.0 0.00 0.00 0.00 99 1010.9
20260509083248 56 171 0.0 2.0 0.00 0.00 0.00 99 1010.8
20260509082744 56 310 0.0 1.0 0.00 0.00 0.00 99 1010.9
20260509082241 56 133 2.0 3.0 0.00 0.00 0.00 99 1010.8
20260509081738 56 228 0.0 2.0 0.00 0.00 0.00 99 1010.8
20260509081236 56 89 0.0 2.0 0.00 0.00 0.00 99 1010.8
20260509080734 56 129 1.0 5.0 0.00 0.00 0.00 99 1010.7
20260509080231 56 162 2.0 5.0 0.00 0.00 0.00 99 1010.6
20260509075729 56 231 0.0 4.0 0.00 0.00 0.00 99 1010.8
20260509075227 56 89 0.0 3.0 0.00 0.00 0.00 99 1010.6
20260509074723 56 161 0.0 2.0 0.00 0.00 0.00 99 1011.1
20260509074221 56 246 0.0 5.0 0.00 0.00 0.00 99 1010.6
20260509073717 56 153 3.0 5.0 0.00 0.00 0.00 99 1010.9
20260509073213 56 194 0.0 2.0 0.00 0.00 0.00 99 1010.8
20260509072710 56 232 0.0 6.0 0.00 0.00 0.00 99 1010.9
20260509072207 56 248 3.0 3.0 0.00 0.00 0.00 99 1010.7
20260509071703 56 283 0.0 0.0 0.00 0.00 0.00 99 1010.7
20260509071201 56 113 0.0 0.0 0.00 0.00 0.00 99 1010.8
20260509070658 57 135 0.0 0.0 0.00 0.00 0.00 99 1010.6
20260509070154 57 141 0.0 1.0 0.00 0.00 0.00 99 1010.7
20260509065650 57 147 0.0 1.0 0.00 0.00 0.00 99 1010.7
20260509065146 57 230 0.0 2.0 0.00 0.00 0.00 99 1010.6
20260509064643 56 157 0.0 1.0 0.00 0.00 0.00 99 1010.7
20260509064141 56 117 0.0 1.0 0.00 0.00 0.00 99 1010.6
20260509063638 56 66 0.0 1.0 0.00 0.00 0.00 99 1010.7
20260509063134 56 17 1.0 2.0 0.00 0.00 0.00 99 1010.7
20260509062632 56 107 0.0 2.0 0.00 0.00 0.00 99 1010.6
20260509062129 56 22 0.0 2.0 0.00 0.00 0.00 99 1010.6
20260509061625 56 345 0.0 1.0 0.00 0.00 0.00 99 1010.6
20260509061123 56 326 0.0 2.0 0.00 0.00 0.00 99 1010.6
20260509060620 56 65 0.0 2.0 0.00 0.00 0.00 99 1010.6
20260509060116 56 114 1.0 2.0 0.00 0.00 0.00 99 1010.5
20260509055612 56 99 0.0 2.0 0.00 0.00 0.00 99 1010.5
20260509055108 57 50 0.0 1.0 0.00 0.00 0.00 99 1010.7
20260509054605 57 37 0.0 2.0 0.00 0.00 0.00 99 1011.1
20260509054103 57 25 0.0 2.0 0.00 0.00 0.00 99 1010.9
20260509053601 57 60 1.0 2.0 0.00 0.00 0.00 99 1010.8
20260509053057 57 152 1.0 2.0 0.00 0.00 0.00 99 1010.9
20260509052555 57 66 0.0 1.0 0.00 0.00 0.00 99 1010.8
20260509052053 57 32 0.0 2.0 0.00 0.00 0.00 99 1011.0
20260509051550 57 122 0.0 1.0 0.00 0.00 0.00 99 1010.8
20260509051047 57 167 2.0 3.0 0.00 0.00 0.00 99 1010.9
20260509050544 57 105 1.0 2.0 0.00 0.00 0.00 99 1011.1
20260509050040 57 37 0.0 2.0 0.00 0.00 0.00 99 1011.0
20260509045538 57 187 1.0 4.0 0.00 0.37 0.37 99 1010.8
20260509045035 57 157 0.0 2.0 0.00 0.37 0.37 99 1011.0
20260509044532 57 127 0.0 2.0 0.00 0.37 0.37 99 1011.1
20260509044024 57 44 0.0 2.0 0.00 0.37 0.37 99 1011.1
20260509043520 57 235 0.0 1.0 0.00 0.37 0.37 99 1011.3
20260509043016 57 66 0.0 2.0 0.00 0.37 0.37 99 1011.2
20260509042513 57 66 2.0 2.0 0.00 0.37 0.37 99 1011.1
20260509042009 57 106 0.0 3.0 0.00 0.37 0.37 99 1011.2
20260509041506 57 142 0.0 2.0 0.00 0.37 0.37 99 1011.4
20260509041004 57 103 0.0 2.0 0.02 0.37 0.37 99 1011.2
20260509040501 57 123 1.0 3.0 0.07 0.37 0.37 99 1011.5
20260509035957 57 150 1.0 2.0 0.05 0.36 0.36 99 1011.7
20260509035455 58 135 0.0 2.0 0.05 0.36 0.36 99 1011.8
20260509034951 58 104 1.0 2.0 0.05 0.35 0.35 99 1011.8
20260509034449 58 89 0.0 1.0 0.09 0.35 0.35 99 1012.0
20260509033946 58 120 0.0 2.0 0.17 0.35 0.35 99 1012.0
20260509033443 58 97 0.0 2.0 0.24 0.34 0.34 98 1012.1
20260509032939 58 69 0.0 1.0 0.24 0.32 0.32 98 1012.0
20260509032437 58 336 0.0 1.0 0.17 0.29 0.29 98 1012.3
20260509031935 58 12 0.0 2.0 0.14 0.27 0.27 98 1012.6
20260509031432 58 115 2.0 2.0 0.14 0.26 0.26 98 1012.5
20260509030929 58 142 0.0 3.0 0.19 0.24 0.24 97 1012.3
20260509030427 58 147 0.0 2.0 0.17 0.22 0.22 97 1012.3
20260509025924 58 117 1.0 5.0 0.26 0.21 0.21 97 1012.3
20260509025420 59 128 2.0 3.0 0.26 0.19 0.19 96 1012.3
20260509024915 59 77 0.0 3.0 0.26 0.16 0.16 96 1012.2
20260509024411 59 104 1.0 3.0 0.26 0.14 0.14 96 1012.4
20260509023908 59 275 1.0 1.0 0.14 0.11 0.11 96 1012.3
20260509023406 59 135 0.0 3.0 0.17 0.10 0.10 95 1012.2
20260509022902 59 77 0.0 2.0 0.21 0.09 0.09 95 1012.4
20260509022359 59 125 1.0 2.0 0.19 0.07 0.07 95 1012.4
20260509021856 60 99 1.0 2.0 0.12 0.05 0.05 93 1012.4
20260509021353 60 135 0.0 1.0 0.07 0.04 0.04 92 1012.1
20260509020851 59 93 0.0 1.0 0.02 0.03 0.03 92 1011.9
20260509020349 59 99 1.0 2.0 0.00 0.02 0.02 93 1011.9
20260509015846 59 38 0.0 1.0 0.00 0.02 0.02 93 1011.9
20260509015344 59 119 0.0 1.0 0.00 0.02 0.02 93 1011.6
20260509014840 60 129 0.0 0.0 0.00 0.02 0.02 93 1011.4
20260509014337 60 129 0.0 0.0 0.00 0.02 0.02 92 1011.3
20260509013834 60 129 0.0 0.0 0.00 0.02 0.02 91 1011.4
20260509013331 60 142 0.0 1.0 0.00 0.02 0.02 92 1011.2
20260509012826 60 217 0.0 0.0 0.00 0.02 0.02 93 1011.1
20260509012323 61 309 0.0 2.0 0.00 0.02 0.02 91 1011.0
20260509011821 62 130 0.0 2.0 0.00 0.02 0.02 87 1010.6
20260509011318 62 81 1.0 1.0 0.00 0.02 0.02 84 1010.6
20260509010816 63 115 2.0 2.0 0.00 0.02 0.02 86 1011.0
20260509010312 63 89 0.0 2.0 0.02 0.02 0.02 84 1010.8
20260509005809 63 127 0.0 2.0 0.05 0.02 0.02 84 1010.8
20260509005308 63 110 0.0 2.0 0.02 0.02 0.02 83 1011.0
20260509004802 63 37 0.0 2.0 0.00 0.02 0.02 84 1011.1
20260509004259 63 215 0.0 2.0 0.02 0.02 0.02 84 1010.9
20260509003757 64 180 0.0 3.0 0.07 0.02 0.02 81 1010.8
20260509003254 64 68 0.0 2.0 0.05 0.01 0.01 79 1010.5
20260509002751 65 130 2.0 4.0 0.00 0.00 0.00 75 1010.4
20260509002249 66 117 3.0 4.0 0.00 0.00 0.00 73 1010.7
20260509001746 67 97 0.0 3.0 0.00 0.00 0.00 69 1010.7
20260509001242 68 122 2.0 3.0 0.00 0.00 0.00 66 1010.6
20260509000740 69 44 0.0 3.0 0.00 0.00 0.00 63 1010.8
20260509000237 69 133 0.0 2.0 0.00 0.00 0.00 63 1010.7
20260508235734 69 122 2.0 2.0 0.00 0.00 0.00 65 1010.7
20260508235230 71 106 2.0 3.0 0.00 0.00 0.00 64 1010.5
20260508234728 71 101 1.0 1.0 0.00 0.00 0.00 62 1010.5
20260508234223 70 103 0.0 2.0 0.00 0.00 0.00 62 1010.4
20260508233718 71 112 1.0 2.0 0.00 0.00 0.00 60 1010.4
20260508233215 71 95 1.0 2.0 0.00 0.00 0.00 62 1010.4
20260508232712 72 105 0.0 3.0 0.00 0.00 0.00 58 1010.6
20260508232209 73 233 0.0 3.0 0.00 0.00 0.00 58 1010.5
20260508231707 72 91 1.0 2.0 0.00 0.00 0.00 56 1010.6
20260508231203 73 117 0.0 1.0 0.00 0.00 0.00 55 1010.6
20260508230701 72 170 0.0 2.0 0.00 0.00 0.00 58 1010.7
20260508230156 73 240 0.0 1.0 0.00 0.00 0.00 56 1010.7
20260508225655 73 145 2.0 2.0 0.00 0.00 0.00 53 1010.7
20260508225150 73 257 0.0 3.0 0.00 0.00 0.00 55 1010.7
20260508224648 75 230 0.0 3.0 0.00 0.00 0.00 52 1010.8
20260508224146 75 180 0.0 2.0 0.00 0.00 0.00 53 1010.5
20260508223643 74 153 1.0 3.0 0.00 0.00 0.00 49 1010.7
20260508223141 74 260 2.0 4.0 0.00 0.00 0.00 50 1010.6
20260508222638 74 197 2.0 4.0 0.00 0.00 0.00 49 1010.6
20260508222135 76 89 0.0 4.0 0.00 0.00 0.00 49 1010.7
20260508221631 77 125 0.0 6.0 0.00 0.00 0.00 46 1010.6
20260508221127 79 15 0.0 3.0 0.00 0.00 0.00 46 1010.6
20260508220624 80 229 0.0 5.0 0.00 0.00 0.00 42 1010.7
20260508220120 78 72 2.0 6.0 0.00 0.00 0.00 43 1010.7
20260508215617 78 167 1.0 3.0 0.00 0.00 0.00 42 1010.9
20260508215113 75 117 2.0 4.0 0.00 0.00 0.00 44 1010.8
20260508214611 78 220 1.0 5.0 0.00 0.00 0.00 43 1010.9
20260508214108 80 197 2.0 5.0 0.00 0.00 0.00 40 1010.8
20260508213604 80 212 4.0 5.0 0.00 0.00 0.00 40 1010.8
20260508213101 79 189 0.0 4.0 0.00 0.00 0.00 42 1010.8
20260508212557 79 202 1.0 6.0 0.00 0.00 0.00 42 1010.9
20260508212054 78 162 3.0 6.0 0.00 0.00 0.00 42 1011.1
20260508211549 78 337 2.0 3.0 0.00 0.00 0.00 47 1011.2
20260508211045 77 246 2.0 4.0 0.00 0.00 0.00 46 1011.3
20260508210542 76 269 1.0 3.0 0.00 0.00 0.00 47 1011.3
20260508210040 76 255 0.0 4.0 0.00 0.00 0.00 44 1011.5
20260508205536 76 279 3.0 4.0 0.00 0.00 0.00 47 1011.4
20260508205033 76 258 1.0 4.0 0.00 0.00 0.00 45 1011.4
20260508204530 78 139 1.0 4.0 0.00 0.00 0.00 43 1011.7
20260508204025 77 208 3.0 5.0 0.00 0.00 0.00 44 1011.7
20260508203521 76 279 6.0 7.0 0.00 0.00 0.00 46 1011.6
20260508203018 77 267 2.0 5.0 0.00 0.00 0.00 46 1011.9
20260508202515 78 113 2.0 9.0 0.00 0.00 0.00 44 1011.8
20260508202012 77 260 2.0 7.0 0.00 0.00 0.00 46 1012.0
20260508201508 78 246 2.0 3.0 0.00 0.00 0.00 44 1011.9
20260508201005 77 137 1.0 4.0 0.00 0.00 0.00 48 1012.0
20260508200502 76 272 3.0 5.0 0.00 0.00 0.00 49 1012.1
20260508195956 75 132 3.0 6.0 0.00 0.00 0.00 48 1012.2
20260508195455 75 224 4.0 11.0 0.00 0.00 0.00 47 1012.2
20260508194950 75 310 1.0 3.0 0.00 0.00 0.00 55 1012.2
20260508194448 76 249 2.0 3.0 0.00 0.00 0.00 54 1012.0
20260508193945 75 247 2.0 4.0 0.00 0.00 0.00 49 1012.2
20260508193441 75 257 3.0 3.0 0.00 0.00 0.00 51 1012.2
20260508192938 75 256 2.0 4.0 0.00 0.00 0.00 51 1012.3
20260508192435 76 181 1.0 6.0 0.00 0.00 0.00 50 1012.3
20260508191932 75 55 2.0 5.0 0.00 0.00 0.00 53 1012.2
20260508191429 74 335 3.0 4.0 0.00 0.00 0.00 51 1012.2
20260508190926 73 177 1.0 4.0 0.00 0.00 0.00 54 1012.3
20260508190423 71 296 2.0 3.0 0.00 0.00 0.00 57 1012.3
20260508185919 72 242 0.0 3.0 0.00 0.00 0.00 53 1012.1
20260508185417 72 252 2.0 4.0 0.00 0.00 0.00 54 1012.5
20260508184914 71 230 0.0 2.0 0.00 0.00 0.00 57 1012.4
20260508184411 70 206 0.0 4.0 0.00 0.00 0.00 56 1012.5
20260508183908 70 256 0.0 5.0 0.00 0.00 0.00 54 1012.7
20260508183404 71 265 2.0 5.0 0.00 0.00 0.00 52 1012.4
20260508182859 72 252 2.0 7.0 0.00 0.00 0.00 53 1012.6
20260508182357 71 25 0.0 3.0 0.00 0.00 0.00 57 1012.8
20260508181852 69 135 2.0 4.0 0.00 0.00 0.00 58 1012.7
20260508181349 69 148 3.0 3.0 0.00 0.00 0.00 58 1012.8
20260508180846 69 257 2.0 4.0 0.00 0.00 0.00 59 1013.1
20260508180343 69 240 0.0 3.0 0.00 0.00 0.00 57 1013.1
20260508175839 68 175 0.0 2.0 0.00 0.00 0.00 59 1012.8
20260508175336 68 249 0.0 2.0 0.00 0.00 0.00 59 1012.9
20260508174834 68 41 0.0 5.0 0.00 0.00 0.00 58 1013.2
20260508174331 68 278 2.0 5.0 0.00 0.00 0.00 57 1013.4
20260508173827 68 290 0.0 3.0 0.00 0.00 0.00 57 1013.5
20260508173325 68 226 2.0 3.0 0.00 0.00 0.00 55 1013.3
20260508172820 68 266 1.0 3.0 0.00 0.00 0.00 57 1013.4
20260508172318 67 132 0.0 5.0 0.00 0.00 0.00 58 1013.6
20260508171814 66 256 0.0 2.0 0.00 0.00 0.00 62 1013.8
20260508171310 66 118 2.0 3.0 0.00 0.00 0.00 59 1013.7
20260508170807 65 318 0.0 2.0 0.00 0.00 0.00 61 1013.8
20260508170306 65 156 0.0 2.0 0.00 0.00 0.00 63 1013.8
20260508165801 65 224 1.0 3.0 0.00 0.00 0.00 62 1013.9
20260508165259 65 189 1.0 5.0 0.00 0.00 0.00 61 1014.1
20260508164755 65 244 3.0 4.0 0.00 0.00 0.00 63 1013.9